Year,Month,Day,Hour,Minute,Value (Times are PST for temperature in C)
2022,02,07,00,00,4.70
2022,02,07,00,01,4.70
2022,02,07,00,02,4.70
2022,02,07,00,03,4.80
2022,02,07,00,04,4.80
2022,02,07,00,05,4.80
2022,02,07,00,06,4.80
2022,02,07,00,07,4.90
2022,02,07,00,08,4.90
2022,02,07,00,09,4.90
2022,02,07,00,10,4.90
2022,02,07,00,11,4.90
2022,02,07,00,12,5.00
2022,02,07,00,13,4.90
2022,02,07,00,14,4.90
2022,02,07,00,15,4.90
2022,02,07,00,16,5.00
2022,02,07,00,17,5.00
2022,02,07,00,18,5.00
2022,02,07,00,19,5.10
2022,02,07,00,20,5.10
2022,02,07,00,21,5.10
2022,02,07,00,22,5.10
2022,02,07,00,23,5.20
2022,02,07,00,24,5.20
2022,02,07,00,25,5.20
2022,02,07,00,26,5.20
2022,02,07,00,27,5.30
2022,02,07,00,28,5.30
2022,02,07,00,29,5.40
2022,02,07,00,30,5.40
2022,02,07,00,31,5.50
2022,02,07,00,32,5.50
2022,02,07,00,33,5.60
2022,02,07,00,34,5.60
2022,02,07,00,35,5.60
2022,02,07,00,36,5.50
2022,02,07,00,37,5.60
2022,02,07,00,38,5.60
2022,02,07,00,39,5.50
2022,02,07,00,40,5.50
2022,02,07,00,41,5.50
2022,02,07,00,42,5.60
2022,02,07,00,43,5.70
2022,02,07,00,44,5.80
2022,02,07,00,45,5.80
2022,02,07,00,46,5.80
2022,02,07,00,47,5.90
2022,02,07,00,48,5.90
2022,02,07,00,49,6.00
2022,02,07,00,50,6.00
2022,02,07,00,51,6.10
2022,02,07,00,52,6.20
2022,02,07,00,53,6.20
2022,02,07,00,54,6.20
2022,02,07,00,55,6.20
2022,02,07,00,56,6.30
2022,02,07,00,57,6.30
2022,02,07,00,58,6.30
2022,02,07,00,59,6.40
2022,02,07,01,00,6.40
2022,02,07,01,01,6.40
2022,02,07,01,02,6.40
2022,02,07,01,03,6.40
2022,02,07,01,04,6.40
2022,02,07,01,05,6.40
2022,02,07,01,06,6.40
2022,02,07,01,07,6.50
2022,02,07,01,08,6.50
2022,02,07,01,09,6.50
2022,02,07,01,10,6.50
2022,02,07,01,11,6.50
2022,02,07,01,12,6.50
2022,02,07,01,13,6.50
2022,02,07,01,14,6.50
2022,02,07,01,15,6.50
2022,02,07,01,16,6.50
2022,02,07,01,17,6.50
2022,02,07,01,18,6.40
2022,02,07,01,19,6.50
2022,02,07,01,20,6.50
2022,02,07,01,21,6.50
2022,02,07,01,22,6.50
2022,02,07,01,23,6.50
2022,02,07,01,24,6.50
2022,02,07,01,25,6.50
2022,02,07,01,26,6.50
2022,02,07,01,27,6.50
2022,02,07,01,28,6.50
2022,02,07,01,29,6.40
2022,02,07,01,30,6.40
2022,02,07,01,31,6.40
2022,02,07,01,32,6.40
2022,02,07,01,33,6.40
2022,02,07,01,34,6.30
2022,02,07,01,35,6.40
2022,02,07,01,36,6.40
2022,02,07,01,37,6.40
2022,02,07,01,38,6.40
2022,02,07,01,39,6.50
2022,02,07,01,40,6.50
2022,02,07,01,41,6.50
2022,02,07,01,42,6.50
2022,02,07,01,43,6.60
2022,02,07,01,44,6.60
2022,02,07,01,45,6.60
2022,02,07,01,46,6.60
2022,02,07,01,47,6.60
2022,02,07,01,48,6.50
2022,02,07,01,49,6.60
2022,02,07,01,50,6.60
2022,02,07,01,51,6.60
2022,02,07,01,52,6.60
2022,02,07,01,53,6.60
2022,02,07,01,54,6.60
2022,02,07,01,55,6.60
2022,02,07,01,56,6.60
2022,02,07,01,57,6.60
2022,02,07,01,58,6.60
2022,02,07,01,59,6.60
2022,02,07,02,00,6.60
2022,02,07,02,01,6.60
2022,02,07,02,02,6.60
2022,02,07,02,03,6.60
2022,02,07,02,04,6.60
2022,02,07,02,05,6.60
2022,02,07,02,06,6.60
2022,02,07,02,07,6.50
2022,02,07,02,08,6.50
2022,02,07,02,09,6.50
2022,02,07,02,10,6.50
2022,02,07,02,11,6.40
2022,02,07,02,12,6.40
2022,02,07,02,13,6.40
2022,02,07,02,14,6.40
2022,02,07,02,15,6.40
2022,02,07,02,16,6.50
2022,02,07,02,17,6.50
2022,02,07,02,18,6.50
2022,02,07,02,19,6.50
2022,02,07,02,20,6.50
2022,02,07,02,21,6.50
2022,02,07,02,22,6.50
2022,02,07,02,23,6.50
2022,02,07,02,24,6.50
2022,02,07,02,25,6.50
2022,02,07,02,26,6.60
2022,02,07,02,27,6.60
2022,02,07,02,28,6.60
2022,02,07,02,29,6.60
2022,02,07,02,30,6.60
2022,02,07,02,31,6.60
2022,02,07,02,32,6.60
2022,02,07,02,33,6.60
2022,02,07,02,34,6.60
2022,02,07,02,35,6.60
2022,02,07,02,36,6.70
2022,02,07,02,37,6.70
2022,02,07,02,38,6.70
2022,02,07,02,39,6.70
2022,02,07,02,40,6.70
2022,02,07,02,41,6.70
2022,02,07,02,42,6.70
2022,02,07,02,43,6.80
2022,02,07,02,44,6.80
2022,02,07,02,45,6.80
2022,02,07,02,46,6.80
2022,02,07,02,47,6.80
2022,02,07,02,48,6.80
2022,02,07,02,49,6.80
2022,02,07,02,50,6.80
2022,02,07,02,51,6.80
2022,02,07,02,52,6.80
2022,02,07,02,53,6.80
2022,02,07,02,54,6.80
2022,02,07,02,55,6.80
2022,02,07,02,56,6.80
2022,02,07,02,57,6.80
2022,02,07,02,58,6.80
2022,02,07,02,59,6.80
2022,02,07,03,00,6.80
2022,02,07,03,01,6.80
2022,02,07,03,02,6.80
2022,02,07,03,03,6.80
2022,02,07,03,04,6.80
2022,02,07,03,05,6.80
2022,02,07,03,06,6.80
2022,02,07,03,07,6.80
2022,02,07,03,08,6.80
2022,02,07,03,09,6.70
2022,02,07,03,10,6.70
2022,02,07,03,11,6.70
2022,02,07,03,12,6.70
2022,02,07,03,13,6.60
2022,02,07,03,14,6.60
2022,02,07,03,15,6.60
2022,02,07,03,16,6.60
2022,02,07,03,17,6.60
2022,02,07,03,18,6.60
2022,02,07,03,19,6.60
2022,02,07,03,20,6.60
2022,02,07,03,21,6.60
2022,02,07,03,22,6.60
2022,02,07,03,23,6.60
2022,02,07,03,24,6.60
2022,02,07,03,25,6.60
2022,02,07,03,26,6.60
2022,02,07,03,27,6.60
2022,02,07,03,28,6.60
2022,02,07,03,29,6.50
2022,02,07,03,30,6.50
2022,02,07,03,31,6.60
2022,02,07,03,32,6.60
2022,02,07,03,33,6.50
2022,02,07,03,34,6.60
2022,02,07,03,35,6.60
2022,02,07,03,36,6.60
2022,02,07,03,37,6.60
2022,02,07,03,38,6.60
2022,02,07,03,39,6.60
2022,02,07,03,40,6.60
2022,02,07,03,41,6.60
2022,02,07,03,42,6.60
2022,02,07,03,43,6.60
2022,02,07,03,44,6.60
2022,02,07,03,45,6.60
2022,02,07,03,46,6.60
2022,02,07,03,47,6.60
2022,02,07,03,48,6.60
2022,02,07,03,49,6.60
2022,02,07,03,50,6.60
2022,02,07,03,51,6.60
2022,02,07,03,52,6.60
2022,02,07,03,53,6.50
2022,02,07,03,54,6.50
2022,02,07,03,55,6.50
2022,02,07,03,56,6.50
2022,02,07,03,57,6.50
2022,02,07,03,58,6.50
2022,02,07,03,59,6.50
2022,02,07,04,00,6.50
2022,02,07,04,01,6.50
2022,02,07,04,02,6.50
2022,02,07,04,03,6.50
2022,02,07,04,04,6.50
2022,02,07,04,05,6.50
2022,02,07,04,06,6.50
2022,02,07,04,07,6.50
2022,02,07,04,08,6.50
2022,02,07,04,09,6.50
2022,02,07,04,10,6.50
2022,02,07,04,11,6.50
2022,02,07,04,12,6.50
2022,02,07,04,13,6.50
2022,02,07,04,14,6.50
2022,02,07,04,15,6.50
2022,02,07,04,16,6.50
2022,02,07,04,17,6.50
2022,02,07,04,18,6.50
2022,02,07,04,19,6.60
2022,02,07,04,20,6.60
2022,02,07,04,21,6.60
2022,02,07,04,22,6.60
2022,02,07,04,23,6.70
2022,02,07,04,24,6.70
2022,02,07,04,25,6.70
2022,02,07,04,26,6.70
2022,02,07,04,27,6.70
2022,02,07,04,28,6.70
2022,02,07,04,29,6.70
2022,02,07,04,30,6.70
2022,02,07,04,31,6.70
2022,02,07,04,32,6.80
2022,02,07,04,33,6.80
2022,02,07,04,34,6.80
2022,02,07,04,35,6.90
2022,02,07,04,36,6.90
2022,02,07,04,37,6.90
2022,02,07,04,38,7.00
2022,02,07,04,39,7.00
2022,02,07,04,40,7.00
2022,02,07,04,41,7.00
2022,02,07,04,42,7.00
2022,02,07,04,43,7.00
2022,02,07,04,44,7.00
2022,02,07,04,45,6.90
2022,02,07,04,46,6.90
2022,02,07,04,47,6.90
2022,02,07,04,48,6.90
2022,02,07,04,49,6.90
2022,02,07,04,50,6.90
2022,02,07,04,51,6.90
2022,02,07,04,52,7.00
2022,02,07,04,53,7.00
2022,02,07,04,54,7.10
2022,02,07,04,55,7.10
2022,02,07,04,56,7.10
2022,02,07,04,57,7.10
2022,02,07,04,58,7.10
2022,02,07,04,59,7.10
2022,02,07,05,00,7.10
2022,02,07,05,01,7.10
2022,02,07,05,02,7.10
2022,02,07,05,03,7.20
2022,02,07,05,04,7.20
2022,02,07,05,05,7.10
2022,02,07,05,06,7.10
2022,02,07,05,07,7.20
2022,02,07,05,08,7.30
2022,02,07,05,09,7.40
2022,02,07,05,10,7.50
2022,02,07,05,11,7.60
2022,02,07,05,12,7.60
2022,02,07,05,13,7.70
2022,02,07,05,14,7.70
2022,02,07,05,15,7.70
2022,02,07,05,16,7.70
2022,02,07,05,17,7.70
2022,02,07,05,18,7.70
2022,02,07,05,19,7.80
2022,02,07,05,20,7.90
2022,02,07,05,21,7.90
2022,02,07,05,22,7.90
2022,02,07,05,23,7.90
2022,02,07,05,24,7.80
2022,02,07,05,25,7.80
2022,02,07,05,26,7.80
2022,02,07,05,27,7.80
2022,02,07,05,28,7.80
2022,02,07,05,29,7.90
2022,02,07,05,30,8.00
2022,02,07,05,31,7.90
2022,02,07,05,32,8.00
2022,02,07,05,33,7.90
2022,02,07,05,34,7.90
2022,02,07,05,35,8.00
2022,02,07,05,36,8.00
2022,02,07,05,37,8.00
2022,02,07,05,38,8.00
2022,02,07,05,39,8.10
2022,02,07,05,40,8.10
2022,02,07,05,41,8.10
2022,02,07,05,42,8.10
2022,02,07,05,43,8.20
2022,02,07,05,44,8.20
2022,02,07,05,45,8.20
2022,02,07,05,46,8.30
2022,02,07,05,47,8.30
2022,02,07,05,48,8.30
2022,02,07,05,49,8.30
2022,02,07,05,50,8.20
2022,02,07,05,51,8.30
2022,02,07,05,52,8.20
2022,02,07,05,53,8.30
2022,02,07,05,54,8.20
2022,02,07,05,55,8.20
2022,02,07,05,56,8.20
2022,02,07,05,57,8.20
2022,02,07,05,58,8.10
2022,02,07,05,59,8.10
2022,02,07,06,00,8.20
2022,02,07,06,01,8.20
2022,02,07,06,02,8.30
2022,02,07,06,03,8.40
2022,02,07,06,04,8.40
2022,02,07,06,05,8.40
2022,02,07,06,06,8.40
2022,02,07,06,07,8.30
2022,02,07,06,08,8.30
2022,02,07,06,09,8.20
2022,02,07,06,10,8.30
2022,02,07,06,11,8.20
2022,02,07,06,12,8.20
2022,02,07,06,13,8.30
2022,02,07,06,14,8.30
2022,02,07,06,15,8.30
2022,02,07,06,16,8.30
2022,02,07,06,17,8.30
2022,02,07,06,18,8.30
2022,02,07,06,19,8.20
2022,02,07,06,20,8.20
2022,02,07,06,21,8.20
2022,02,07,06,22,8.20
2022,02,07,06,23,8.20
2022,02,07,06,24,8.20
2022,02,07,06,25,8.20
2022,02,07,06,26,8.20
2022,02,07,06,27,8.20
2022,02,07,06,28,8.10
2022,02,07,06,29,8.00
2022,02,07,06,30,7.90
2022,02,07,06,31,7.90
2022,02,07,06,32,7.90
2022,02,07,06,33,7.80
2022,02,07,06,34,7.80
2022,02,07,06,35,7.80
2022,02,07,06,36,7.80
2022,02,07,06,37,7.80
2022,02,07,06,38,7.80
2022,02,07,06,39,7.80
2022,02,07,06,40,7.80
2022,02,07,06,41,7.80
2022,02,07,06,42,7.70
2022,02,07,06,43,7.70
2022,02,07,06,44,7.70
2022,02,07,06,45,7.70
2022,02,07,06,46,7.70
2022,02,07,06,47,7.70
2022,02,07,06,48,7.70
2022,02,07,06,49,7.70
2022,02,07,06,50,7.70
2022,02,07,06,51,7.80
2022,02,07,06,52,7.80
2022,02,07,06,53,7.80
2022,02,07,06,54,7.80
2022,02,07,06,55,7.80
2022,02,07,06,56,7.80
2022,02,07,06,57,7.80
2022,02,07,06,58,7.90
2022,02,07,06,59,7.90
2022,02,07,07,00,7.90
2022,02,07,07,01,7.90
2022,02,07,07,02,7.80
2022,02,07,07,03,7.80
2022,02,07,07,04,7.80
2022,02,07,07,05,7.80
2022,02,07,07,06,7.80
2022,02,07,07,07,7.80
2022,02,07,07,08,7.80
2022,02,07,07,09,7.80
2022,02,07,07,10,7.80
2022,02,07,07,11,7.80
2022,02,07,07,12,7.80
2022,02,07,07,13,7.70
2022,02,07,07,14,7.70
2022,02,07,07,15,7.70
2022,02,07,07,16,7.70
2022,02,07,07,17,7.70
2022,02,07,07,18,7.70
2022,02,07,07,19,7.70
2022,02,07,07,20,7.70
2022,02,07,07,21,7.70
2022,02,07,07,22,7.70
2022,02,07,07,23,7.60
2022,02,07,07,24,7.60
2022,02,07,07,25,7.60
2022,02,07,07,26,7.60
2022,02,07,07,27,7.70
2022,02,07,07,28,7.70
2022,02,07,07,29,7.70
2022,02,07,07,30,7.70
2022,02,07,07,31,7.70
2022,02,07,07,32,7.80
2022,02,07,07,33,7.90
2022,02,07,07,34,8.10
2022,02,07,07,35,8.30
2022,02,07,07,36,8.40
2022,02,07,07,37,8.50
2022,02,07,07,38,8.60
2022,02,07,07,39,8.70
2022,02,07,07,40,8.80
2022,02,07,07,41,8.80
2022,02,07,07,42,8.80
2022,02,07,07,43,8.90
2022,02,07,07,44,9.00
2022,02,07,07,45,9.20
2022,02,07,07,46,9.20
2022,02,07,07,47,9.30
2022,02,07,07,48,9.40
2022,02,07,07,49,9.60
2022,02,07,07,50,9.70
2022,02,07,07,51,9.80
2022,02,07,07,52,9.80
2022,02,07,07,53,9.90
2022,02,07,07,54,9.90
2022,02,07,07,55,9.90
2022,02,07,07,56,10.00
2022,02,07,07,57,10.00
2022,02,07,07,58,10.00
2022,02,07,07,59,10.00
2022,02,07,08,00,10.00
2022,02,07,08,01,10.00
2022,02,07,08,02,10.00
2022,02,07,08,03,10.00
2022,02,07,08,04,10.00
2022,02,07,08,05,10.00
2022,02,07,08,06,10.00
2022,02,07,08,07,10.00
2022,02,07,08,08,10.10
2022,02,07,08,09,10.10
2022,02,07,08,10,10.10
2022,02,07,08,11,10.10
2022,02,07,08,12,10.00
2022,02,07,08,13,10.00
2022,02,07,08,14,10.00
2022,02,07,08,15,10.00
2022,02,07,08,16,10.00
2022,02,07,08,17,10.00
2022,02,07,08,18,10.00
2022,02,07,08,19,10.00
2022,02,07,08,20,10.00
2022,02,07,08,21,10.00
2022,02,07,08,22,10.00
2022,02,07,08,23,10.00
2022,02,07,08,24,10.00
2022,02,07,08,25,10.10
2022,02,07,08,26,10.10
2022,02,07,08,27,10.20
2022,02,07,08,28,10.20
2022,02,07,08,29,10.30
2022,02,07,08,30,10.40
2022,02,07,08,31,10.40
2022,02,07,08,32,10.40
2022,02,07,08,33,10.40
2022,02,07,08,34,10.40
2022,02,07,08,35,10.40
2022,02,07,08,36,10.40
2022,02,07,08,37,10.40
2022,02,07,08,38,10.40
2022,02,07,08,39,10.40
2022,02,07,08,40,10.40
2022,02,07,08,41,10.40
2022,02,07,08,42,10.50
2022,02,07,08,43,10.50
2022,02,07,08,44,10.50
2022,02,07,08,45,10.50
2022,02,07,08,46,10.50
2022,02,07,08,47,10.50
2022,02,07,08,48,10.50
2022,02,07,08,49,10.50
2022,02,07,08,50,10.50
2022,02,07,08,51,10.40
2022,02,07,08,52,10.50
2022,02,07,08,53,10.50
2022,02,07,08,54,10.50
2022,02,07,08,55,10.50
2022,02,07,08,56,10.50
2022,02,07,08,57,10.60
2022,02,07,08,58,10.60
2022,02,07,08,59,10.60
2022,02,07,09,00,10.60
2022,02,07,09,01,10.60
2022,02,07,09,02,10.60
2022,02,07,09,03,10.70
2022,02,07,09,04,10.70
2022,02,07,09,05,10.70
2022,02,07,09,06,10.70
2022,02,07,09,07,10.70
2022,02,07,09,08,10.80
2022,02,07,09,09,10.80
2022,02,07,09,10,10.80
2022,02,07,09,11,10.80
2022,02,07,09,12,10.80
2022,02,07,09,13,10.80
2022,02,07,09,14,10.90
2022,02,07,09,15,10.90
2022,02,07,09,16,10.80
2022,02,07,09,17,10.80
2022,02,07,09,18,10.70
2022,02,07,09,19,10.60
2022,02,07,09,20,10.60
2022,02,07,09,21,10.50
2022,02,07,09,22,10.50
2022,02,07,09,23,10.50
2022,02,07,09,24,10.50
2022,02,07,09,25,10.60
2022,02,07,09,26,10.60
2022,02,07,09,27,10.70
2022,02,07,09,28,10.70
2022,02,07,09,29,10.80
2022,02,07,09,30,10.80
2022,02,07,09,31,10.80
2022,02,07,09,32,10.80
2022,02,07,09,33,10.80
2022,02,07,09,34,10.80
2022,02,07,09,35,10.90
2022,02,07,09,36,10.90
2022,02,07,09,37,10.90
2022,02,07,09,38,10.90
2022,02,07,09,39,10.80
2022,02,07,09,40,10.80
2022,02,07,09,41,10.90
2022,02,07,09,42,10.90
2022,02,07,09,43,10.90
2022,02,07,09,44,10.90
2022,02,07,09,45,10.90
2022,02,07,09,46,10.90
2022,02,07,09,47,10.80
2022,02,07,09,48,10.80
2022,02,07,09,49,10.80
2022,02,07,09,50,10.80
2022,02,07,09,51,10.90
2022,02,07,09,52,10.90
2022,02,07,09,53,10.90
2022,02,07,09,54,10.90
2022,02,07,09,55,10.90
2022,02,07,09,56,10.80
2022,02,07,09,57,10.80
2022,02,07,09,58,10.70
2022,02,07,09,59,10.70
2022,02,07,10,00,10.60
2022,02,07,10,01,10.60
2022,02,07,10,02,10.50
2022,02,07,10,03,10.40
2022,02,07,10,04,10.40
2022,02,07,10,05,10.20
2022,02,07,10,06,10.20
2022,02,07,10,07,10.10
2022,02,07,10,08,10.00
2022,02,07,10,09,10.00
2022,02,07,10,10,10.00
2022,02,07,10,11,10.00
2022,02,07,10,12,10.00
2022,02,07,10,13,10.00
2022,02,07,10,14,10.00
2022,02,07,10,15,10.00
2022,02,07,10,16,10.10
2022,02,07,10,17,10.10
2022,02,07,10,18,10.10
2022,02,07,10,19,10.10
2022,02,07,10,20,10.10
2022,02,07,10,21,10.10
2022,02,07,10,22,10.10
2022,02,07,10,23,10.20
2022,02,07,10,24,10.20
2022,02,07,10,25,10.20
2022,02,07,10,26,10.30
2022,02,07,10,27,10.30
2022,02,07,10,28,10.40
2022,02,07,10,29,10.50
2022,02,07,10,30,10.50
2022,02,07,10,31,10.60
2022,02,07,10,32,10.60
2022,02,07,10,33,10.60
2022,02,07,10,34,10.60
2022,02,07,10,35,10.70
2022,02,07,10,36,10.60
2022,02,07,10,37,10.60
2022,02,07,10,38,10.60
2022,02,07,10,39,10.60
2022,02,07,10,40,10.70
2022,02,07,10,41,10.70
2022,02,07,10,42,10.70
2022,02,07,10,43,10.70
2022,02,07,10,44,10.70
2022,02,07,10,45,10.70
2022,02,07,10,46,10.70
2022,02,07,10,47,10.70
2022,02,07,10,48,10.70
2022,02,07,10,49,10.70
2022,02,07,10,50,10.70
2022,02,07,10,51,10.60
2022,02,07,10,52,10.60
2022,02,07,10,53,10.60
2022,02,07,10,54,10.60
2022,02,07,10,55,10.60
2022,02,07,10,56,10.60
2022,02,07,10,57,10.60
2022,02,07,10,58,10.60
2022,02,07,10,59,10.60
2022,02,07,11,00,10.60
2022,02,07,11,01,10.60
2022,02,07,11,02,10.60
2022,02,07,11,03,10.60
2022,02,07,11,04,10.50
2022,02,07,11,05,10.50
2022,02,07,11,06,10.50
2022,02,07,11,07,10.40
2022,02,07,11,08,10.40
2022,02,07,11,09,10.40
2022,02,07,11,10,10.40
2022,02,07,11,11,10.40
2022,02,07,11,12,10.40
2022,02,07,11,13,10.40
2022,02,07,11,14,10.40
2022,02,07,11,15,10.40
2022,02,07,11,16,10.40
2022,02,07,11,17,10.40
2022,02,07,11,18,10.40
2022,02,07,11,19,10.50
2022,02,07,11,20,10.50
2022,02,07,11,21,10.50
2022,02,07,11,22,10.60
2022,02,07,11,23,10.70
2022,02,07,11,24,10.70
2022,02,07,11,25,10.80
2022,02,07,11,26,10.80
2022,02,07,11,27,10.90
2022,02,07,11,28,10.90
2022,02,07,11,29,10.90
2022,02,07,11,30,11.00
2022,02,07,11,31,11.00
2022,02,07,11,32,11.00
2022,02,07,11,33,11.10
2022,02,07,11,34,11.10
2022,02,07,11,35,11.10
2022,02,07,11,36,11.10
2022,02,07,11,37,11.10
2022,02,07,11,38,11.10
2022,02,07,11,39,11.10
2022,02,07,11,40,11.10
2022,02,07,11,41,11.10
2022,02,07,11,42,11.20
2022,02,07,11,43,11.20
2022,02,07,11,44,11.20
2022,02,07,11,45,11.20
2022,02,07,11,46,11.20
2022,02,07,11,47,11.20
2022,02,07,11,48,11.20
2022,02,07,11,49,11.20
2022,02,07,11,50,11.30
2022,02,07,11,51,11.30
2022,02,07,11,52,11.30
2022,02,07,11,53,11.30
2022,02,07,11,54,11.30
2022,02,07,11,55,11.30
2022,02,07,11,56,11.30
2022,02,07,11,57,11.30
2022,02,07,11,58,11.30
2022,02,07,11,59,11.30
2022,02,07,12,00,11.30
2022,02,07,12,01,11.30
2022,02,07,12,02,11.30
2022,02,07,12,03,11.30
2022,02,07,12,04,11.30
2022,02,07,12,05,11.30
2022,02,07,12,06,11.20
2022,02,07,12,07,11.20
2022,02,07,12,08,11.20
2022,02,07,12,09,11.20
2022,02,07,12,10,11.30
2022,02,07,12,11,11.30
2022,02,07,12,12,11.30
2022,02,07,12,13,11.20
2022,02,07,12,14,11.20
2022,02,07,12,15,11.20
2022,02,07,12,16,11.20
2022,02,07,12,17,11.20
2022,02,07,12,18,11.30
2022,02,07,12,19,11.30
2022,02,07,12,20,11.40
2022,02,07,12,21,11.40
2022,02,07,12,22,11.30
2022,02,07,12,23,11.30
2022,02,07,12,24,11.30
2022,02,07,12,25,11.30
2022,02,07,12,26,11.30
2022,02,07,12,27,11.30
2022,02,07,12,28,11.30
2022,02,07,12,29,11.30
2022,02,07,12,30,11.30
2022,02,07,12,31,11.30
2022,02,07,12,32,11.40
2022,02,07,12,33,11.40
2022,02,07,12,34,11.40
2022,02,07,12,35,11.40
2022,02,07,12,36,11.40
2022,02,07,12,37,11.40
2022,02,07,12,38,11.50
2022,02,07,12,39,11.50
2022,02,07,12,40,11.50
2022,02,07,12,41,11.50
2022,02,07,12,42,11.60
2022,02,07,12,43,11.60
2022,02,07,12,44,11.60
2022,02,07,12,45,11.60
2022,02,07,12,46,11.70
2022,02,07,12,47,11.70
2022,02,07,12,48,11.70
2022,02,07,12,49,11.70
2022,02,07,12,50,11.70
2022,02,07,12,51,11.70
2022,02,07,12,52,11.70
2022,02,07,12,53,11.70
2022,02,07,12,54,11.70
2022,02,07,12,55,11.80
2022,02,07,12,56,11.70
2022,02,07,12,57,11.70
2022,02,07,12,58,11.70
2022,02,07,12,59,11.70
2022,02,07,13,00,11.70
2022,02,07,13,01,11.70
2022,02,07,13,02,11.70
2022,02,07,13,03,11.70
2022,02,07,13,04,11.70
2022,02,07,13,05,11.70
2022,02,07,13,06,11.70
2022,02,07,13,07,11.70
2022,02,07,13,08,11.70
2022,02,07,13,09,11.60
2022,02,07,13,10,11.60
2022,02,07,13,11,11.60
2022,02,07,13,12,11.70
2022,02,07,13,13,11.70
2022,02,07,13,14,11.70
2022,02,07,13,15,11.70
2022,02,07,13,16,11.80
2022,02,07,13,17,11.80
2022,02,07,13,18,11.80
2022,02,07,13,19,11.90
2022,02,07,13,20,11.90
2022,02,07,13,21,11.90
2022,02,07,13,22,11.90
2022,02,07,13,23,11.90
2022,02,07,13,24,11.90
2022,02,07,13,25,11.90
2022,02,07,13,26,11.90
2022,02,07,13,27,11.90
2022,02,07,13,28,11.90
2022,02,07,13,29,11.90
2022,02,07,13,30,11.90
2022,02,07,13,31,12.00
2022,02,07,13,32,12.00
2022,02,07,13,33,11.90
2022,02,07,13,34,11.90
2022,02,07,13,35,12.00
2022,02,07,13,36,11.90
2022,02,07,13,37,11.90
2022,02,07,13,38,11.90
2022,02,07,13,39,11.90
2022,02,07,13,40,11.90
2022,02,07,13,41,11.90
2022,02,07,13,42,11.90
2022,02,07,13,43,11.80
2022,02,07,13,44,11.80
2022,02,07,13,45,11.80
2022,02,07,13,46,11.80
2022,02,07,13,47,11.80
2022,02,07,13,48,11.90
2022,02,07,13,49,11.90
2022,02,07,13,50,11.90
2022,02,07,13,51,11.90
2022,02,07,13,52,11.90
2022,02,07,13,53,12.00
2022,02,07,13,54,12.10
2022,02,07,13,55,12.10
2022,02,07,13,56,12.10
2022,02,07,13,57,12.10
2022,02,07,13,58,12.00
2022,02,07,13,59,12.00
2022,02,07,14,00,12.00
2022,02,07,14,01,11.90
2022,02,07,14,02,11.90
2022,02,07,14,03,11.90
2022,02,07,14,04,11.90
2022,02,07,14,05,11.90
2022,02,07,14,06,11.90
2022,02,07,14,07,11.90
2022,02,07,14,08,11.90
2022,02,07,14,09,11.90
2022,02,07,14,10,12.00
2022,02,07,14,11,12.00
2022,02,07,14,12,12.00
2022,02,07,14,13,12.10
2022,02,07,14,14,12.10
2022,02,07,14,15,12.10
2022,02,07,14,16,12.10
2022,02,07,14,17,12.10
2022,02,07,14,18,12.20
2022,02,07,14,19,12.20
2022,02,07,14,20,12.10
2022,02,07,14,21,12.10
2022,02,07,14,22,12.10
2022,02,07,14,23,12.00
2022,02,07,14,24,11.90
2022,02,07,14,25,11.80
2022,02,07,14,26,11.80
2022,02,07,14,27,11.70
2022,02,07,14,28,11.70
2022,02,07,14,29,11.60
2022,02,07,14,30,11.60
2022,02,07,14,31,11.60
2022,02,07,14,32,11.60
2022,02,07,14,33,11.60
2022,02,07,14,34,11.60
2022,02,07,14,35,11.60
2022,02,07,14,36,11.60
2022,02,07,14,37,11.60
2022,02,07,14,38,11.50
2022,02,07,14,39,11.50
2022,02,07,14,40,11.50
2022,02,07,14,41,11.50
2022,02,07,14,42,11.60
2022,02,07,14,43,11.70
2022,02,07,14,44,11.70
2022,02,07,14,45,11.70
2022,02,07,14,46,11.70
2022,02,07,14,47,11.80
2022,02,07,14,48,11.80
2022,02,07,14,49,11.90
2022,02,07,14,50,11.90
2022,02,07,14,51,12.00
2022,02,07,14,52,12.00
2022,02,07,14,53,12.00
2022,02,07,14,54,12.00
2022,02,07,14,55,12.10
2022,02,07,14,56,12.00
2022,02,07,14,57,12.00
2022,02,07,14,58,12.00
2022,02,07,14,59,12.00
2022,02,07,15,00,12.00
2022,02,07,15,01,12.00
2022,02,07,15,02,12.00
2022,02,07,15,03,12.10
2022,02,07,15,04,12.10
2022,02,07,15,05,12.10
2022,02,07,15,06,12.10
2022,02,07,15,07,12.10
2022,02,07,15,08,12.10
2022,02,07,15,09,12.10
2022,02,07,15,10,12.00
2022,02,07,15,11,12.00
2022,02,07,15,12,11.90
2022,02,07,15,13,11.90
2022,02,07,15,14,11.90
2022,02,07,15,15,11.90
2022,02,07,15,16,11.90
2022,02,07,15,17,11.80
2022,02,07,15,18,11.90
2022,02,07,15,19,11.90
2022,02,07,15,20,11.90
2022,02,07,15,21,11.90
2022,02,07,15,22,11.80
2022,02,07,15,23,11.80
2022,02,07,15,24,11.80
2022,02,07,15,25,11.70
2022,02,07,15,26,11.70
2022,02,07,15,27,11.70
2022,02,07,15,28,11.70
2022,02,07,15,29,11.60
2022,02,07,15,30,11.60
2022,02,07,15,31,11.60
2022,02,07,15,32,11.50
2022,02,07,15,33,11.40
2022,02,07,15,34,11.40
2022,02,07,15,35,11.40
2022,02,07,15,36,11.30
2022,02,07,15,37,11.30
2022,02,07,15,38,11.30
2022,02,07,15,39,11.30
2022,02,07,15,40,11.20
2022,02,07,15,41,11.20
2022,02,07,15,42,11.20
2022,02,07,15,43,11.20
2022,02,07,15,44,11.20
2022,02,07,15,45,11.10
2022,02,07,15,46,11.10
2022,02,07,15,47,11.10
2022,02,07,15,48,11.10
2022,02,07,15,49,11.00
2022,02,07,15,50,11.00
2022,02,07,15,51,11.00
2022,02,07,15,52,11.00
2022,02,07,15,53,10.90
2022,02,07,15,54,10.90
2022,02,07,15,55,10.80
2022,02,07,15,56,10.80
2022,02,07,15,57,10.80
2022,02,07,15,58,10.80
2022,02,07,15,59,10.70
2022,02,07,16,00,10.70
2022,02,07,16,01,10.70
2022,02,07,16,02,10.70
2022,02,07,16,03,10.60
2022,02,07,16,04,10.60
2022,02,07,16,05,10.60
2022,02,07,16,06,10.60
2022,02,07,16,07,10.60
2022,02,07,16,08,10.60
2022,02,07,16,09,10.60
2022,02,07,16,10,10.60
2022,02,07,16,11,10.50
2022,02,07,16,12,10.50
2022,02,07,16,13,10.50
2022,02,07,16,14,10.50
2022,02,07,16,15,10.50
2022,02,07,16,16,10.50
2022,02,07,16,17,10.50
2022,02,07,16,18,10.50
2022,02,07,16,19,10.50
2022,02,07,16,20,10.50
2022,02,07,16,21,10.50
2022,02,07,16,22,10.40
2022,02,07,16,23,10.40
2022,02,07,16,24,10.40
2022,02,07,16,25,10.40
2022,02,07,16,26,10.40
2022,02,07,16,27,10.30
2022,02,07,16,28,10.30
2022,02,07,16,29,10.30
2022,02,07,16,30,10.30
2022,02,07,16,31,10.30
2022,02,07,16,32,10.30
2022,02,07,16,33,10.30
2022,02,07,16,34,10.30
2022,02,07,16,35,10.20
2022,02,07,16,36,10.20
2022,02,07,16,37,10.20
2022,02,07,16,38,10.20
2022,02,07,16,39,10.20
2022,02,07,16,40,10.20
2022,02,07,16,41,10.20
2022,02,07,16,42,10.20
2022,02,07,16,43,10.20
2022,02,07,16,44,10.20
2022,02,07,16,45,10.10
2022,02,07,16,46,10.10
2022,02,07,16,47,10.10
2022,02,07,16,48,10.10
2022,02,07,16,49,10.10
2022,02,07,16,50,10.10
2022,02,07,16,51,10.10
2022,02,07,16,52,10.10
2022,02,07,16,53,10.10
2022,02,07,16,54,10.00
2022,02,07,16,55,10.00
2022,02,07,16,56,10.00
2022,02,07,16,57,10.00
2022,02,07,16,58,9.90
2022,02,07,16,59,9.90
2022,02,07,17,00,9.90
2022,02,07,17,01,9.90
2022,02,07,17,02,9.90
2022,02,07,17,03,9.90
2022,02,07,17,04,9.90
2022,02,07,17,05,9.90
2022,02,07,17,06,9.90
2022,02,07,17,07,9.90
2022,02,07,17,08,9.80
2022,02,07,17,09,9.80
2022,02,07,17,10,9.80
2022,02,07,17,11,9.80
2022,02,07,17,12,9.80
2022,02,07,17,13,9.80
2022,02,07,17,14,9.80
2022,02,07,17,15,9.80
2022,02,07,17,16,9.80
2022,02,07,17,17,9.70
2022,02,07,17,18,9.70
2022,02,07,17,19,9.70
2022,02,07,17,20,9.70
2022,02,07,17,21,9.70
2022,02,07,17,22,9.70
2022,02,07,17,23,9.70
2022,02,07,17,24,9.60
2022,02,07,17,25,9.60
2022,02,07,17,26,9.60
2022,02,07,17,27,9.60
2022,02,07,17,28,9.60
2022,02,07,17,29,9.60
2022,02,07,17,30,9.60
2022,02,07,17,31,9.60
2022,02,07,17,32,9.50
2022,02,07,17,33,9.50
2022,02,07,17,34,9.50
2022,02,07,17,35,9.40
2022,02,07,17,36,9.40
2022,02,07,17,37,9.40
2022,02,07,17,38,9.30
2022,02,07,17,39,9.30
2022,02,07,17,40,9.30
2022,02,07,17,41,9.20
2022,02,07,17,42,9.20